Station DISW3 - Devils Island, WI Image indicating link to RSS feed of recent meteorological observations for station DISW3


Conditions at DISW3 as of
(4:00 pm CST)
2200 GMT on 11/29/2023:
     

Click on the graph icon in the table below to see a time series plot of the last five days of that observation.

5-day plot - Wind Direction Wind Direction (WDIR):WSW ( 240 deg true )
5-day plot - Wind Speed Wind Speed (WSPD): 25 kts
5-day plot - Wind Gust Wind Gust (GST): 29 kts
5-day plot - Atmospheric Pressure Atmospheric Pressure (PRES):29.63 in
5-day plot - Pressure Tendency Pressure Tendency (PTDY):-0.03 in ( Falling )
5-day plot - Air Temperature Air Temperature (ATMP): 41.9 °F
5-day plot - Dew Point Dew Point (DEWP): 31.1 °F
5-day plot - Wind Chill Wind Chill (CHILL): 31.3 °F
5-day plot - Wind Speed at 10 Meters Wind Speed at 10 meters (WSPD10M): 23 kts
5-day plot - Wind Speed at 20 Meters Wind Speed at 20 meters (WSPD20M): 23 kts
5-day plot -  Wind Speed, Wind Gust and Atmospheric Pressure Combined plot of Wind Speed, Gust, and Air Pressure
Continuous Winds
TIME
(CST)
5-day plot - Wind Direction WDIR 5-day plot - Wind Speed WSPD
4:00 pmWSW ( 243 deg ) 25 kts
3:50 pmWSW ( 243 deg ) 25 kts
3:40 pmWSW ( 243 deg ) 25 kts
3:30 pmWSW ( 244 deg ) 26 kts
3:20 pmWSW ( 245 deg ) 25 kts
3:10 pmWSW ( 245 deg ) 25 kts
 
Peak gust during the measurement hour
TIME
(CST)
5-day plot - Gust Direction GDR 5-day plot - Gust Speed GST
3:35 pmWSW ( 240 deg ) 31 kts
Previous observations
TIME
(CST)
5-day plot - Wind Direction
WDIR
 
5-day plot - Wind Speed
WSPD
kts
5-day plot - Wind Gust
GST
kts
5-day plot - Wave Height
WVHT
ft
5-day plot - Dominant Wave Period
DPD
sec
5-day plot - Average Wave Period
APD
sec
5-day plot - Mean Wave Direction
MWD
 
5-day plot - Atmospheric Pressure
PRES
in
5-day plot - Pressure Tendency
PTDY
in
5-day plot - Air Temperature
ATMP
°F
5-day plot - Water Temperature
WTMP
°F
5-day plot - Dew Point
DEWP
°F
5-day plot - Salinity
SAL
psu
5-day plot - Visibility
VIS
nmi
5-day plot - Tide (above MLLW)
TIDE
ft
2023-11-29 03:00 pmWSW 25 29----29.63-0.04 40.5- 30.9---
2023-11-29 02:00 pmWSW 23 26----29.64-0.04 38.8- 31.8---
2023-11-29 01:00 pmWSW 21 26----29.65-0.04 37.2- 32.7---
2023-11-29 12:00 pmWSW 20 24----29.67+0.00 36.3- 30.0---
2023-11-29 11:00 am W 20 23----29.68+0.01 34.9- 29.3---
2023-11-29 10:00 am W 21 25----29.70+0.04 34.0- 29.1---
2023-11-29 09:00 am W 21 25----29.67+0.01 34.2- 30.0---
2023-11-29 08:00 am W 21 26----29.67+0.01 33.6- 29.3---
2023-11-29 07:00 am W 24 27----29.66+0.00 35.1- 31.3---
2023-11-29 06:00 am W 19 22----29.66+0.00 34.5- 30.2---
2023-11-29 05:00 amWSW 19 23----29.66-0.01 34.0- 29.1---
2023-11-29 04:00 am W 19 22----29.66+0.00 33.6- 28.0---
2023-11-29 03:00 am W 19 23----29.67-0.01 33.8- 28.9---
2023-11-29 02:00 amWSW 19 25----29.67-0.03 32.7- 29.5---
2023-11-29 01:00 amWSW 21 27----29.67-0.03 31.8- 27.7---
2023-11-29 12:00 amWSW 23 26----29.68-0.07 30.4- 24.6---
2023-11-28 11:00 pmWSW 23 27----29.70-0.07 29.7- 22.8---
2023-11-28 10:00 pm SW 24 31----29.70-0.10 29.7- 22.1---
2023-11-28 09:00 pm SW 19 25----29.75-0.09 28.6- 20.5---
2023-11-28 08:00 pm SW 24 30----29.77-0.09 28.0- 18.7---
2023-11-28 07:00 pm SW 19 25----29.80-0.11 28.0- 18.1---
2023-11-28 06:00 pm SW 20 24----29.83-0.13 25.7- 12.7---
2023-11-28 05:00 pmSSW 14 19----29.86-0.15 24.4- 10.9---
2023-11-28 04:00 pmSSW 12 16----29.91-0.14 23.4- 9.7---